{"data":{"norad_id":61935,"intl_designator":"2024-207Z","name":"STARLINK-32500","alt_names":[],"object_type":"PAYLOAD","status":"ACTIVE","operator":null,"country":"US","launch_date":"2024-11-11","launch_site_code":"AFETR","launch_vehicle":null,"mission":null,"orbit_class":"UNKNOWN","rcs_meters":null,"size_class":null,"mass_kg":null,"dimensions":null,"purposes":["comms"],"wikipedia_slug":null,"has_3d_model":false,"image_url":null,"decayed_at":null,"tle_current":{"epoch":"2026-09-21T06:48:01.461600Z","epoch_age_seconds":117980,"freshness":"FRESH","line1":"1 61935U 24207Z   26264.28335025 -.00001148  00000+0 -32167-4 0  9995","line2":"2 61935  43.0015 260.7570 0002633 289.8641  70.1927 15.27571170104599","mean_motion":15.2757117,"eccentricity":0.0002633,"inclination_deg":43.0015,"raan_deg":260.757,"arg_perigee_deg":289.8641,"mean_anomaly_deg":70.1927,"bstar":-3.2167e-5,"rev_number":10459,"period_min":94.26729361487,"perigee_km":481.26897910277,"apogee_km":484.88209362442,"semimajor_km":6861.2125363636,"source":"CELESTRAK","updated_at":"2026-09-22T09:00:49.453116Z"}}}